Year,Month,Day,Hour,Minute,Value (Times are PST for temperature in C)
2015,10,16,00,00,9.40
2015,10,16,00,01,9.40
2015,10,16,00,02,9.40
2015,10,16,00,03,9.40
2015,10,16,00,04,9.40
2015,10,16,00,05,9.40
2015,10,16,00,06,9.40
2015,10,16,00,07,9.40
2015,10,16,00,08,9.40
2015,10,16,00,09,9.40
2015,10,16,00,10,9.40
2015,10,16,00,11,9.40
2015,10,16,00,12,9.40
2015,10,16,00,13,9.40
2015,10,16,00,14,9.40
2015,10,16,00,15,9.40
2015,10,16,00,16,9.30
2015,10,16,00,17,9.30
2015,10,16,00,18,9.30
2015,10,16,00,19,9.30
2015,10,16,00,20,9.30
2015,10,16,00,21,9.30
2015,10,16,00,22,9.30
2015,10,16,00,23,9.30
2015,10,16,00,24,9.30
2015,10,16,00,25,9.30
2015,10,16,00,26,9.30
2015,10,16,00,27,9.30
2015,10,16,00,28,9.20
2015,10,16,00,29,9.20
2015,10,16,00,30,9.20
2015,10,16,00,31,9.20
2015,10,16,00,32,9.20
2015,10,16,00,33,9.20
2015,10,16,00,34,9.20
2015,10,16,00,35,9.20
2015,10,16,00,36,9.20
2015,10,16,00,37,9.20
2015,10,16,00,38,9.20
2015,10,16,00,39,9.20
2015,10,16,00,40,9.20
2015,10,16,00,41,9.20
2015,10,16,00,42,9.10
2015,10,16,00,43,9.10
2015,10,16,00,44,9.10
2015,10,16,00,45,9.10
2015,10,16,00,46,9.10
2015,10,16,00,47,9.00
2015,10,16,00,48,9.00
2015,10,16,00,49,9.00
2015,10,16,00,50,9.10
2015,10,16,00,51,9.10
2015,10,16,00,52,9.10
2015,10,16,00,53,9.10
2015,10,16,00,54,9.00
2015,10,16,00,55,9.10
2015,10,16,00,56,9.10
2015,10,16,00,57,9.10
2015,10,16,00,58,9.10
2015,10,16,00,59,9.10
2015,10,16,01,00,9.10
2015,10,16,01,01,9.10
2015,10,16,01,02,9.20
2015,10,16,01,03,9.10
2015,10,16,01,04,9.10
2015,10,16,01,05,9.10
2015,10,16,01,06,9.20
2015,10,16,01,07,9.20
2015,10,16,01,08,9.20
2015,10,16,01,09,9.20
2015,10,16,01,10,9.20
2015,10,16,01,11,9.20
2015,10,16,01,12,9.20
2015,10,16,01,13,9.20
2015,10,16,01,14,9.20
2015,10,16,01,15,9.20
2015,10,16,01,16,9.20
2015,10,16,01,17,9.20
2015,10,16,01,18,9.20
2015,10,16,01,19,9.10
2015,10,16,01,20,9.10
2015,10,16,01,21,9.10
2015,10,16,01,22,9.10
2015,10,16,01,23,9.20
2015,10,16,01,24,9.20
2015,10,16,01,25,9.10
2015,10,16,01,26,9.10
2015,10,16,01,27,9.10
2015,10,16,01,28,9.10
2015,10,16,01,29,9.10
2015,10,16,01,30,9.10
2015,10,16,01,31,9.10
2015,10,16,01,32,9.00
2015,10,16,01,33,9.00
2015,10,16,01,34,9.00
2015,10,16,01,35,9.00
2015,10,16,01,36,9.10
2015,10,16,01,37,9.10
2015,10,16,01,38,9.20
2015,10,16,01,39,9.20
2015,10,16,01,40,9.20
2015,10,16,01,41,9.10
2015,10,16,01,42,9.10
2015,10,16,01,43,9.00
2015,10,16,01,44,9.00
2015,10,16,01,45,9.00
2015,10,16,01,46,9.00
2015,10,16,01,47,8.90
2015,10,16,01,48,8.90
2015,10,16,01,49,8.90
2015,10,16,01,50,8.90
2015,10,16,01,51,8.90
2015,10,16,01,52,8.90
2015,10,16,01,53,8.90
2015,10,16,01,54,9.00
2015,10,16,01,55,9.00
2015,10,16,01,56,9.00
2015,10,16,01,57,9.00
2015,10,16,01,58,9.00
2015,10,16,01,59,9.00
2015,10,16,02,00,9.00
2015,10,16,02,01,9.00
2015,10,16,02,02,9.00
2015,10,16,02,03,9.10
2015,10,16,02,04,9.10
2015,10,16,02,05,9.20
2015,10,16,02,06,9.20
2015,10,16,02,07,9.20
2015,10,16,02,08,9.10
2015,10,16,02,09,9.10
2015,10,16,02,10,9.10
2015,10,16,02,11,9.10
2015,10,16,02,12,9.20
2015,10,16,02,13,9.20
2015,10,16,02,14,9.20
2015,10,16,02,15,9.20
2015,10,16,02,16,9.20
2015,10,16,02,17,9.20
2015,10,16,02,18,9.20
2015,10,16,02,19,9.20
2015,10,16,02,20,9.20
2015,10,16,02,21,9.20
2015,10,16,02,22,9.20
2015,10,16,02,23,9.10
2015,10,16,02,24,9.10
2015,10,16,02,25,9.10
2015,10,16,02,26,9.00
2015,10,16,02,27,9.00
2015,10,16,02,28,9.00
2015,10,16,02,29,9.00
2015,10,16,02,30,9.00
2015,10,16,02,31,9.00
2015,10,16,02,32,9.00
2015,10,16,02,33,8.90
2015,10,16,02,34,8.90
2015,10,16,02,35,8.90
2015,10,16,02,36,8.90
2015,10,16,02,37,8.90
2015,10,16,02,38,8.90
2015,10,16,02,39,8.90
2015,10,16,02,40,9.00
2015,10,16,02,41,9.00
2015,10,16,02,42,9.00
2015,10,16,02,43,9.00
2015,10,16,02,44,9.00
2015,10,16,02,45,8.90
2015,10,16,02,46,8.90
2015,10,16,02,47,8.90
2015,10,16,02,48,8.90
2015,10,16,02,49,8.90
2015,10,16,02,50,8.90
2015,10,16,02,51,8.90
2015,10,16,02,52,8.90
2015,10,16,02,53,8.90
2015,10,16,02,54,8.80
2015,10,16,02,55,8.80
2015,10,16,02,56,8.80
2015,10,16,02,57,8.90
2015,10,16,02,58,8.90
2015,10,16,02,59,8.90
2015,10,16,03,00,8.90
2015,10,16,03,01,8.90
2015,10,16,03,02,8.90
2015,10,16,03,03,8.90
2015,10,16,03,04,8.90
2015,10,16,03,05,8.90
2015,10,16,03,06,8.90
2015,10,16,03,07,8.80
2015,10,16,03,08,8.80
2015,10,16,03,09,8.80
2015,10,16,03,10,8.80
2015,10,16,03,11,8.80
2015,10,16,03,12,8.80
2015,10,16,03,13,8.80
2015,10,16,03,14,8.80
2015,10,16,03,15,8.70
2015,10,16,03,16,8.70
2015,10,16,03,17,8.70
2015,10,16,03,18,8.70
2015,10,16,03,19,8.70
2015,10,16,03,20,8.70
2015,10,16,03,21,8.70
2015,10,16,03,22,8.70
2015,10,16,03,23,8.80
2015,10,16,03,24,8.80
2015,10,16,03,25,8.80
2015,10,16,03,26,8.80
2015,10,16,03,27,8.80
2015,10,16,03,28,8.90
2015,10,16,03,29,8.90
2015,10,16,03,30,8.90
2015,10,16,03,31,8.90
2015,10,16,03,32,8.90
2015,10,16,03,33,8.90
2015,10,16,03,34,8.90
2015,10,16,03,35,8.80
2015,10,16,03,36,8.80
2015,10,16,03,37,8.90
2015,10,16,03,38,8.90
2015,10,16,03,39,8.90
2015,10,16,03,40,8.90
2015,10,16,03,41,8.90
2015,10,16,03,42,8.90
2015,10,16,03,43,9.00
2015,10,16,03,44,9.00
2015,10,16,03,45,9.00
2015,10,16,03,46,9.10
2015,10,16,03,47,9.20
2015,10,16,03,48,9.20
2015,10,16,03,49,9.20
2015,10,16,03,50,9.30
2015,10,16,03,51,9.40
2015,10,16,03,52,9.50
2015,10,16,03,53,9.60
2015,10,16,03,54,9.70
2015,10,16,03,55,9.80
2015,10,16,03,56,9.90
2015,10,16,03,57,9.90
2015,10,16,03,58,9.90
2015,10,16,03,59,10.00
2015,10,16,04,00,10.10
2015,10,16,04,01,10.10
2015,10,16,04,02,10.10
2015,10,16,04,03,10.10
2015,10,16,04,04,10.10
2015,10,16,04,05,10.10
2015,10,16,04,06,10.00
2015,10,16,04,07,9.90
2015,10,16,04,08,9.90
2015,10,16,04,09,9.80
2015,10,16,04,10,9.70
2015,10,16,04,11,9.70
2015,10,16,04,12,9.60
2015,10,16,04,13,9.50
2015,10,16,04,14,9.50
2015,10,16,04,15,9.50
2015,10,16,04,16,9.50
2015,10,16,04,17,9.50
2015,10,16,04,18,9.50
2015,10,16,04,19,9.40
2015,10,16,04,20,9.40
2015,10,16,04,21,9.40
2015,10,16,04,22,9.40
2015,10,16,04,23,9.40
2015,10,16,04,24,9.40
2015,10,16,04,25,9.50
2015,10,16,04,26,9.50
2015,10,16,04,27,9.50
2015,10,16,04,28,9.50
2015,10,16,04,29,9.50
2015,10,16,04,30,9.50
2015,10,16,04,31,9.50
2015,10,16,04,32,9.60
2015,10,16,04,33,9.60
2015,10,16,04,34,9.60
2015,10,16,04,35,9.60
2015,10,16,04,36,9.60
2015,10,16,04,37,9.60
2015,10,16,04,38,9.60
2015,10,16,04,39,9.60
2015,10,16,04,40,9.60
2015,10,16,04,41,9.60
2015,10,16,04,42,9.60
2015,10,16,04,43,9.70
2015,10,16,04,44,9.60
2015,10,16,04,45,9.60
2015,10,16,04,46,9.60
2015,10,16,04,47,9.60
2015,10,16,04,48,9.60
2015,10,16,04,49,9.60
2015,10,16,04,50,9.70
2015,10,16,04,51,9.70
2015,10,16,04,52,9.70
2015,10,16,04,53,9.70
2015,10,16,04,54,9.70
2015,10,16,04,55,9.70
2015,10,16,04,56,9.70
2015,10,16,04,57,9.70
2015,10,16,04,58,9.70
2015,10,16,04,59,9.70
2015,10,16,05,00,9.70
2015,10,16,05,01,9.70
2015,10,16,05,02,9.70
2015,10,16,05,03,9.70
2015,10,16,05,04,9.70
2015,10,16,05,05,9.70
2015,10,16,05,06,9.70
2015,10,16,05,07,9.70
2015,10,16,05,08,9.70
2015,10,16,05,09,9.70
2015,10,16,05,10,9.70
2015,10,16,05,11,9.70
2015,10,16,05,12,9.70
2015,10,16,05,13,9.70
2015,10,16,05,14,9.70
2015,10,16,05,15,9.70
2015,10,16,05,16,9.70
2015,10,16,05,17,9.60
2015,10,16,05,18,9.60
2015,10,16,05,19,9.60
2015,10,16,05,20,9.60
2015,10,16,05,21,9.60
2015,10,16,05,22,9.70
2015,10,16,05,23,9.70
2015,10,16,05,24,9.70
2015,10,16,05,25,9.70
2015,10,16,05,26,9.70
2015,10,16,05,27,9.60
2015,10,16,05,28,9.60
2015,10,16,05,29,9.60
2015,10,16,05,30,9.60
2015,10,16,05,31,9.60
2015,10,16,05,32,9.50
2015,10,16,05,33,9.50
2015,10,16,05,34,9.50
2015,10,16,05,35,9.50
2015,10,16,05,36,9.50
2015,10,16,05,37,9.50
2015,10,16,05,38,9.40
2015,10,16,05,39,9.40
2015,10,16,05,40,9.40
2015,10,16,05,41,9.40
2015,10,16,05,42,9.40
2015,10,16,05,43,9.40
2015,10,16,05,44,9.40
2015,10,16,05,45,9.40
2015,10,16,05,46,9.40
2015,10,16,05,47,9.40
2015,10,16,05,48,9.50
2015,10,16,05,49,9.50
2015,10,16,05,50,9.50
2015,10,16,05,51,9.50
2015,10,16,05,52,9.60
2015,10,16,05,53,9.60
2015,10,16,05,54,9.60
2015,10,16,05,55,9.60
2015,10,16,05,56,9.60
2015,10,16,05,57,9.60
2015,10,16,05,58,9.60
2015,10,16,05,59,9.60
2015,10,16,06,00,9.60
2015,10,16,06,01,9.70
2015,10,16,06,02,9.70
2015,10,16,06,03,9.80
2015,10,16,06,04,9.90
2015,10,16,06,05,9.90
2015,10,16,06,06,9.90
2015,10,16,06,07,10.00
2015,10,16,06,08,10.10
2015,10,16,06,09,10.10
2015,10,16,06,10,10.20
2015,10,16,06,11,10.30
2015,10,16,06,12,10.40
2015,10,16,06,13,10.60
2015,10,16,06,14,10.70
2015,10,16,06,15,10.80
2015,10,16,06,16,10.90
2015,10,16,06,17,10.90
2015,10,16,06,18,11.00
2015,10,16,06,19,11.10
2015,10,16,06,20,11.10
2015,10,16,06,21,11.20
2015,10,16,06,22,11.20
2015,10,16,06,23,11.30
2015,10,16,06,24,11.30
2015,10,16,06,25,11.30
2015,10,16,06,26,11.30
2015,10,16,06,27,11.40
2015,10,16,06,28,11.40
2015,10,16,06,29,11.40
2015,10,16,06,30,11.40
2015,10,16,06,31,11.40
2015,10,16,06,32,11.40
2015,10,16,06,33,11.30
2015,10,16,06,34,11.30
2015,10,16,06,35,11.30
2015,10,16,06,36,11.20
2015,10,16,06,37,11.20
2015,10,16,06,38,11.10
2015,10,16,06,39,11.00
2015,10,16,06,40,10.90
2015,10,16,06,41,10.90
2015,10,16,06,42,10.90
2015,10,16,06,43,10.80
2015,10,16,06,44,10.80
2015,10,16,06,45,10.80
2015,10,16,06,46,10.80
2015,10,16,06,47,10.80
2015,10,16,06,48,10.70
2015,10,16,06,49,10.70
2015,10,16,06,50,10.60
2015,10,16,06,51,10.60
2015,10,16,06,52,10.50
2015,10,16,06,53,10.40
2015,10,16,06,54,10.40
2015,10,16,06,55,10.30
2015,10,16,06,56,10.30
2015,10,16,06,57,10.20
2015,10,16,06,58,10.20
2015,10,16,06,59,10.20
2015,10,16,07,00,10.20
2015,10,16,07,01,10.10
2015,10,16,07,02,10.10
2015,10,16,07,03,10.10
2015,10,16,07,04,10.10
2015,10,16,07,05,10.10
2015,10,16,07,06,10.10
2015,10,16,07,07,10.00
2015,10,16,07,08,9.90
2015,10,16,07,09,9.90
2015,10,16,07,10,9.90
2015,10,16,07,11,9.90
2015,10,16,07,12,9.90
2015,10,16,07,13,9.90
2015,10,16,07,14,9.90
2015,10,16,07,15,9.90
2015,10,16,07,16,9.90
2015,10,16,07,17,9.90
2015,10,16,07,18,9.90
2015,10,16,07,19,9.90
2015,10,16,07,20,9.90
2015,10,16,07,21,10.00
2015,10,16,07,22,10.10
2015,10,16,07,23,10.10
2015,10,16,07,24,10.10
2015,10,16,07,25,10.10
2015,10,16,07,26,10.10
2015,10,16,07,27,10.00
2015,10,16,07,28,9.90
2015,10,16,07,29,9.90
2015,10,16,07,30,9.90
2015,10,16,07,31,9.90
2015,10,16,07,32,9.80
2015,10,16,07,33,9.80
2015,10,16,07,34,9.70
2015,10,16,07,35,9.70
2015,10,16,07,36,9.70
2015,10,16,07,37,9.70
2015,10,16,07,38,9.70
2015,10,16,07,39,9.70
2015,10,16,07,40,9.70
2015,10,16,07,41,9.80
2015,10,16,07,42,9.80
2015,10,16,07,43,9.80
2015,10,16,07,44,9.80
2015,10,16,07,45,9.80
2015,10,16,07,46,9.80
2015,10,16,07,47,9.80
2015,10,16,07,48,9.70
2015,10,16,07,49,9.70
2015,10,16,07,50,9.80
2015,10,16,07,51,9.80
2015,10,16,07,52,9.80
2015,10,16,07,53,9.90
2015,10,16,07,54,9.90
2015,10,16,07,55,9.90
2015,10,16,07,56,9.90
2015,10,16,07,57,9.90
2015,10,16,07,58,10.10
2015,10,16,07,59,10.10
2015,10,16,08,00,10.10
2015,10,16,08,01,10.10
2015,10,16,08,02,10.10
2015,10,16,08,03,10.10
2015,10,16,08,04,10.10
2015,10,16,08,05,10.10
2015,10,16,08,06,10.20
2015,10,16,08,07,10.30
2015,10,16,08,08,10.30
2015,10,16,08,09,10.40
2015,10,16,08,10,10.40
2015,10,16,08,11,10.40
2015,10,16,08,12,10.50
2015,10,16,08,13,10.60
2015,10,16,08,14,10.60
2015,10,16,08,15,10.60
2015,10,16,08,16,10.70
2015,10,16,08,17,10.70
2015,10,16,08,18,10.80
2015,10,16,08,19,10.80
2015,10,16,08,20,10.90
2015,10,16,08,21,10.90
2015,10,16,08,22,10.90
2015,10,16,08,23,10.90
2015,10,16,08,24,11.10
2015,10,16,08,25,11.10
2015,10,16,08,26,11.10
2015,10,16,08,27,11.10
2015,10,16,08,28,11.20
2015,10,16,08,29,11.30
2015,10,16,08,30,11.30
2015,10,16,08,31,11.40
2015,10,16,08,32,11.50
2015,10,16,08,33,11.60
2015,10,16,08,34,11.60
2015,10,16,08,35,11.60
2015,10,16,08,36,11.60
2015,10,16,08,37,11.60
2015,10,16,08,38,11.60
2015,10,16,08,39,11.60
2015,10,16,08,40,11.60
2015,10,16,08,41,11.70
2015,10,16,08,42,11.70
2015,10,16,08,43,11.70
2015,10,16,08,44,11.70
2015,10,16,08,45,11.80
2015,10,16,08,46,11.80
2015,10,16,08,47,11.80
2015,10,16,08,48,11.80
2015,10,16,08,49,11.80
2015,10,16,08,50,11.90
2015,10,16,08,51,12.00
2015,10,16,08,52,12.10
2015,10,16,08,53,12.20
2015,10,16,08,54,12.30
2015,10,16,08,55,12.40
2015,10,16,08,56,12.50
2015,10,16,08,57,12.60
2015,10,16,08,58,12.70
2015,10,16,08,59,12.80
2015,10,16,09,00,12.90
2015,10,16,09,01,13.00
2015,10,16,09,02,13.10
2015,10,16,09,03,13.20
2015,10,16,09,04,13.40
2015,10,16,09,05,13.50
2015,10,16,09,06,13.60
2015,10,16,09,07,13.70
2015,10,16,09,08,13.80
2015,10,16,09,09,13.90
2015,10,16,09,10,14.00
2015,10,16,09,11,14.10
2015,10,16,09,12,14.20
2015,10,16,09,13,14.30
2015,10,16,09,14,14.40
2015,10,16,09,15,14.60
2015,10,16,09,16,14.60
2015,10,16,09,17,14.60
2015,10,16,09,18,14.70
2015,10,16,09,19,14.70
2015,10,16,09,20,14.80
2015,10,16,09,21,14.80
2015,10,16,09,22,14.80
2015,10,16,09,23,14.80
2015,10,16,09,24,14.90
2015,10,16,09,25,14.90
2015,10,16,09,26,14.90
2015,10,16,09,27,15.00
2015,10,16,09,28,15.00
2015,10,16,09,29,15.10
2015,10,16,09,30,15.10
2015,10,16,09,31,15.20
2015,10,16,09,32,15.20
2015,10,16,09,33,15.30
2015,10,16,09,34,15.30
2015,10,16,09,35,15.30
2015,10,16,09,36,15.40
2015,10,16,09,37,15.50
2015,10,16,09,38,15.50
2015,10,16,09,39,15.60
2015,10,16,09,40,15.60
2015,10,16,09,41,15.70
2015,10,16,09,42,15.80
2015,10,16,09,43,15.80
2015,10,16,09,44,15.80
2015,10,16,09,45,15.80
2015,10,16,09,46,15.90
2015,10,16,09,47,16.00
2015,10,16,09,48,16.10
2015,10,16,09,49,16.20
2015,10,16,09,50,16.20
2015,10,16,09,51,16.20
2015,10,16,09,52,16.30
2015,10,16,09,53,16.30
2015,10,16,09,54,16.30
2015,10,16,09,55,16.30
2015,10,16,09,56,16.30
2015,10,16,09,57,16.30
2015,10,16,09,58,16.30
2015,10,16,09,59,16.30
2015,10,16,10,00,16.40
2015,10,16,10,01,16.40
2015,10,16,10,02,16.40
2015,10,16,10,03,16.40
2015,10,16,10,04,16.50
2015,10,16,10,05,16.60
2015,10,16,10,06,16.60
2015,10,16,10,07,16.60
2015,10,16,10,08,16.60
2015,10,16,10,09,16.60
2015,10,16,10,10,16.70
2015,10,16,10,11,16.70
2015,10,16,10,12,16.70
2015,10,16,10,13,16.70
2015,10,16,10,14,16.70
2015,10,16,10,15,16.70
2015,10,16,10,16,16.70
2015,10,16,10,17,16.70
2015,10,16,10,18,16.80
2015,10,16,10,19,16.80
2015,10,16,10,20,16.80
2015,10,16,10,21,16.80
2015,10,16,10,22,16.90
2015,10,16,10,23,16.90
2015,10,16,10,24,16.80
2015,10,16,10,25,16.90
2015,10,16,10,26,16.80
2015,10,16,10,27,16.70
2015,10,16,10,28,16.70
2015,10,16,10,29,16.70
2015,10,16,10,30,16.70
2015,10,16,10,31,16.70
2015,10,16,10,32,16.70
2015,10,16,10,33,16.80
2015,10,16,10,34,16.80
2015,10,16,10,35,16.80
2015,10,16,10,36,16.90
2015,10,16,10,37,16.90
2015,10,16,10,38,16.90
2015,10,16,10,39,16.90
2015,10,16,10,40,16.90
2015,10,16,10,41,16.90
2015,10,16,10,42,17.00
2015,10,16,10,43,17.00
2015,10,16,10,44,17.00
2015,10,16,10,45,17.10
2015,10,16,10,46,17.10
2015,10,16,10,47,17.00
2015,10,16,10,48,17.00
2015,10,16,10,49,16.90
2015,10,16,10,50,17.00
2015,10,16,10,51,17.00
2015,10,16,10,52,17.00
2015,10,16,10,53,17.00
2015,10,16,10,54,17.00
2015,10,16,10,55,17.00
2015,10,16,10,56,17.00
2015,10,16,10,57,17.00
2015,10,16,10,58,17.00
2015,10,16,10,59,17.00
2015,10,16,11,00,17.00
2015,10,16,11,01,17.00
2015,10,16,11,02,17.00
2015,10,16,11,03,17.00
2015,10,16,11,04,17.00
2015,10,16,11,05,17.10
2015,10,16,11,06,17.10
2015,10,16,11,07,17.10
2015,10,16,11,08,17.20
2015,10,16,11,09,17.30
2015,10,16,11,10,17.40
2015,10,16,11,11,17.40
2015,10,16,11,12,17.40
2015,10,16,11,13,17.40
2015,10,16,11,14,17.40
2015,10,16,11,15,17.40
2015,10,16,11,16,17.40
2015,10,16,11,17,17.40
2015,10,16,11,18,17.40
2015,10,16,11,19,17.40
2015,10,16,11,20,17.30
2015,10,16,11,21,17.30
2015,10,16,11,22,17.30
2015,10,16,11,23,17.30
2015,10,16,11,24,17.30
2015,10,16,11,25,17.30
2015,10,16,11,26,17.30
2015,10,16,11,27,17.30
2015,10,16,11,28,17.30
2015,10,16,11,29,17.40
2015,10,16,11,30,17.40
2015,10,16,11,31,17.40
2015,10,16,11,32,17.40
2015,10,16,11,33,17.40
2015,10,16,11,34,17.30
2015,10,16,11,35,17.30
2015,10,16,11,36,17.30
2015,10,16,11,37,17.30
2015,10,16,11,38,17.30
2015,10,16,11,39,17.30
2015,10,16,11,40,17.30
2015,10,16,11,41,17.30
2015,10,16,11,42,17.30
2015,10,16,11,43,17.30
2015,10,16,11,44,17.40
2015,10,16,11,45,17.40
2015,10,16,11,46,17.40
2015,10,16,11,47,17.40
2015,10,16,11,48,17.50
2015,10,16,11,49,17.50
2015,10,16,11,50,17.70
2015,10,16,11,51,17.70
2015,10,16,11,52,17.80
2015,10,16,11,53,17.80
2015,10,16,11,54,17.80
2015,10,16,11,55,17.90
2015,10,16,11,56,17.90
2015,10,16,11,57,17.90
2015,10,16,11,58,17.90
2015,10,16,11,59,17.90
2015,10,16,12,00,17.90
2015,10,16,12,01,17.90
2015,10,16,12,02,17.90
2015,10,16,12,03,17.80
2015,10,16,12,04,17.80
2015,10,16,12,05,17.80
2015,10,16,12,06,17.80
2015,10,16,12,07,17.80
2015,10,16,12,08,17.80
2015,10,16,12,09,17.80
2015,10,16,12,10,17.90
2015,10,16,12,11,17.80
2015,10,16,12,12,17.90
2015,10,16,12,13,17.90
2015,10,16,12,14,17.90
2015,10,16,12,15,17.90
2015,10,16,12,16,17.90
2015,10,16,12,17,17.90
2015,10,16,12,18,17.90
2015,10,16,12,19,17.90
2015,10,16,12,20,17.90
2015,10,16,12,21,17.90
2015,10,16,12,22,17.90
2015,10,16,12,23,17.80
2015,10,16,12,24,17.70
2015,10,16,12,25,17.70
2015,10,16,12,26,17.70
2015,10,16,12,27,17.80
2015,10,16,12,28,17.90
2015,10,16,12,29,17.90
2015,10,16,12,30,17.90
2015,10,16,12,31,17.90
2015,10,16,12,32,17.90
2015,10,16,12,33,17.90
2015,10,16,12,34,17.90
2015,10,16,12,35,17.90
2015,10,16,12,36,17.90
2015,10,16,12,37,17.90
2015,10,16,12,38,17.90
2015,10,16,12,39,17.90
2015,10,16,12,40,17.90
2015,10,16,12,41,17.90
2015,10,16,12,42,17.90
2015,10,16,12,43,17.90
2015,10,16,12,44,18.00
2015,10,16,12,45,18.10
2015,10,16,12,46,18.10
2015,10,16,12,47,18.20
2015,10,16,12,48,18.20
2015,10,16,12,49,18.20
2015,10,16,12,50,18.20
2015,10,16,12,51,18.20
2015,10,16,12,52,18.20
2015,10,16,12,53,18.20
2015,10,16,12,54,18.20
2015,10,16,12,55,18.30
2015,10,16,12,56,18.30
2015,10,16,12,57,18.40
2015,10,16,12,58,18.40
2015,10,16,12,59,18.40
2015,10,16,13,00,18.30
2015,10,16,13,01,18.30
2015,10,16,13,02,18.30
2015,10,16,13,03,18.20
2015,10,16,13,04,18.20
2015,10,16,13,05,18.20
2015,10,16,13,06,18.20
2015,10,16,13,07,18.20
2015,10,16,13,08,18.10
2015,10,16,13,09,18.10
2015,10,16,13,10,18.10
2015,10,16,13,11,18.10
2015,10,16,13,12,18.20
2015,10,16,13,13,18.20
2015,10,16,13,14,18.20
2015,10,16,13,15,18.20
2015,10,16,13,16,18.20
2015,10,16,13,17,18.30
2015,10,16,13,18,18.40
2015,10,16,13,19,18.40
2015,10,16,13,20,18.40
2015,10,16,13,21,18.40
2015,10,16,13,22,18.40
2015,10,16,13,23,18.40
2015,10,16,13,24,18.30
2015,10,16,13,25,18.30
2015,10,16,13,26,18.20
2015,10,16,13,27,18.30
2015,10,16,13,28,18.30
2015,10,16,13,29,18.30
2015,10,16,13,30,18.40
2015,10,16,13,31,18.50
2015,10,16,13,32,18.50
2015,10,16,13,33,18.50
2015,10,16,13,34,18.50
2015,10,16,13,35,18.50
2015,10,16,13,36,18.50
2015,10,16,13,37,18.50
2015,10,16,13,38,18.50
2015,10,16,13,39,18.50
2015,10,16,13,40,18.40
2015,10,16,13,41,18.40
2015,10,16,13,42,18.40
2015,10,16,13,43,18.40
2015,10,16,13,44,18.30
2015,10,16,13,45,18.40
2015,10,16,13,46,18.50
2015,10,16,13,47,18.50
2015,10,16,13,48,18.60
2015,10,16,13,49,18.70
2015,10,16,13,50,18.80
2015,10,16,13,51,18.90
2015,10,16,13,52,19.00
2015,10,16,13,53,19.10
2015,10,16,13,54,19.10
2015,10,16,13,55,19.10
2015,10,16,13,56,19.10
2015,10,16,13,57,19.00
2015,10,16,13,58,18.90
2015,10,16,13,59,18.90
2015,10,16,14,00,18.80
2015,10,16,14,01,18.80
2015,10,16,14,02,18.80
2015,10,16,14,03,18.80
2015,10,16,14,04,18.80
2015,10,16,14,05,18.90
2015,10,16,14,06,18.90
2015,10,16,14,07,18.90
2015,10,16,14,08,19.00
2015,10,16,14,09,19.00
2015,10,16,14,10,19.10
2015,10,16,14,11,19.10
2015,10,16,14,12,19.10
2015,10,16,14,13,19.10
2015,10,16,14,14,19.10
2015,10,16,14,15,19.10
2015,10,16,14,16,19.10
2015,10,16,14,17,19.10
2015,10,16,14,18,19.00
2015,10,16,14,19,18.90
2015,10,16,14,20,18.90
2015,10,16,14,21,18.90
2015,10,16,14,22,18.90
2015,10,16,14,23,18.90
2015,10,16,14,24,18.90
2015,10,16,14,25,18.80
2015,10,16,14,26,18.80
2015,10,16,14,27,18.80
2015,10,16,14,28,18.80
2015,10,16,14,29,18.90
2015,10,16,14,30,18.90
2015,10,16,14,31,18.90
2015,10,16,14,32,19.00
2015,10,16,14,33,19.10
2015,10,16,14,34,19.10
2015,10,16,14,35,19.10
2015,10,16,14,36,19.20
2015,10,16,14,37,19.20
2015,10,16,14,38,19.20
2015,10,16,14,39,19.30
2015,10,16,14,40,19.30
2015,10,16,14,41,19.30
2015,10,16,14,42,19.40
2015,10,16,14,43,19.40
2015,10,16,14,44,19.50
2015,10,16,14,45,19.60
2015,10,16,14,46,19.60
2015,10,16,14,47,19.70
2015,10,16,14,48,19.70
2015,10,16,14,49,19.70
2015,10,16,14,50,19.70
2015,10,16,14,51,19.70
2015,10,16,14,52,19.70
2015,10,16,14,53,19.70
2015,10,16,14,54,19.70
2015,10,16,14,55,19.60
2015,10,16,14,56,19.60
2015,10,16,14,57,19.60
2015,10,16,14,58,19.70
2015,10,16,14,59,19.70
2015,10,16,15,00,19.80
2015,10,16,15,01,19.80
2015,10,16,15,02,19.80
2015,10,16,15,03,19.90
2015,10,16,15,04,19.90
2015,10,16,15,05,19.80
2015,10,16,15,06,19.80
2015,10,16,15,07,19.80
2015,10,16,15,08,19.80
2015,10,16,15,09,19.70
2015,10,16,15,10,19.70
2015,10,16,15,11,19.70
2015,10,16,15,12,19.60
2015,10,16,15,13,19.70
2015,10,16,15,14,19.70
2015,10,16,15,15,19.80
2015,10,16,15,16,19.80
2015,10,16,15,17,19.80
2015,10,16,15,18,19.80
2015,10,16,15,19,19.80
2015,10,16,15,20,19.80
2015,10,16,15,21,19.80
2015,10,16,15,22,19.80
2015,10,16,15,23,19.80
2015,10,16,15,24,19.70
2015,10,16,15,25,19.70
2015,10,16,15,26,19.70
2015,10,16,15,27,19.60
2015,10,16,15,28,19.60
2015,10,16,15,29,19.50
2015,10,16,15,30,19.50
2015,10,16,15,31,19.50
2015,10,16,15,32,19.40
2015,10,16,15,33,19.30
2015,10,16,15,34,19.20
2015,10,16,15,35,19.10
2015,10,16,15,36,19.00
2015,10,16,15,37,18.90
2015,10,16,15,38,18.80
2015,10,16,15,39,18.70
2015,10,16,15,40,18.60
2015,10,16,15,41,18.50
2015,10,16,15,42,18.40
2015,10,16,15,43,18.30
2015,10,16,15,44,18.20
2015,10,16,15,45,18.00
2015,10,16,15,46,17.90
2015,10,16,15,47,17.90
2015,10,16,15,48,17.80
2015,10,16,15,49,17.80
2015,10,16,15,50,17.70
2015,10,16,15,51,17.70
2015,10,16,15,52,17.80
2015,10,16,15,53,17.80
2015,10,16,15,54,17.90
2015,10,16,15,55,17.90
2015,10,16,15,56,17.90
2015,10,16,15,57,18.00
2015,10,16,15,58,18.10
2015,10,16,15,59,18.10
2015,10,16,16,00,18.20
2015,10,16,16,01,18.20
2015,10,16,16,02,18.20
2015,10,16,16,03,18.30
2015,10,16,16,04,18.30
2015,10,16,16,05,18.40
2015,10,16,16,06,18.40
2015,10,16,16,07,18.50
2015,10,16,16,08,18.50
2015,10,16,16,09,18.60
2015,10,16,16,10,18.60
2015,10,16,16,11,18.60
2015,10,16,16,12,18.60
2015,10,16,16,13,18.70
2015,10,16,16,14,18.70
2015,10,16,16,15,18.80
2015,10,16,16,16,18.80
2015,10,16,16,17,18.80
2015,10,16,16,18,18.80
2015,10,16,16,19,18.80
2015,10,16,16,20,18.80
2015,10,16,16,21,18.80
2015,10,16,16,22,18.80
2015,10,16,16,23,18.80
2015,10,16,16,24,18.80
2015,10,16,16,25,18.80
2015,10,16,16,26,18.80
2015,10,16,16,27,18.80
2015,10,16,16,28,18.80
2015,10,16,16,29,18.80
2015,10,16,16,30,18.90
2015,10,16,16,31,18.90
2015,10,16,16,32,18.90
2015,10,16,16,33,19.00
2015,10,16,16,34,19.10
2015,10,16,16,35,19.10
2015,10,16,16,36,19.10
2015,10,16,16,37,19.10
2015,10,16,16,38,19.10
2015,10,16,16,39,19.00
2015,10,16,16,40,18.90
2015,10,16,16,41,18.90
2015,10,16,16,42,18.90
2015,10,16,16,43,18.80
2015,10,16,16,44,18.70
2015,10,16,16,45,18.70
2015,10,16,16,46,18.60
2015,10,16,16,47,18.60
2015,10,16,16,48,18.50
2015,10,16,16,49,18.40
2015,10,16,16,50,18.30
2015,10,16,16,51,18.20
2015,10,16,16,52,18.20
2015,10,16,16,53,18.20
2015,10,16,16,54,18.30
2015,10,16,16,55,18.40
2015,10,16,16,56,18.40
2015,10,16,16,57,18.50
2015,10,16,16,58,18.50
2015,10,16,16,59,18.60
2015,10,16,17,00,18.70
2015,10,16,17,01,18.70
2015,10,16,17,02,18.60
2015,10,16,17,03,18.50
2015,10,16,17,04,18.30
2015,10,16,17,05,18.10
2015,10,16,17,06,18.00
2015,10,16,17,07,17.90
2015,10,16,17,08,17.80
2015,10,16,17,09,17.70
2015,10,16,17,10,17.70
2015,10,16,17,11,17.60
2015,10,16,17,12,17.60
2015,10,16,17,13,17.60
2015,10,16,17,14,17.50
2015,10,16,17,15,17.50
2015,10,16,17,16,17.50
2015,10,16,17,17,17.50
2015,10,16,17,18,17.50
2015,10,16,17,19,17.60
2015,10,16,17,20,17.70
2015,10,16,17,21,17.70
2015,10,16,17,22,17.80
2015,10,16,17,23,17.80
2015,10,16,17,24,17.80
2015,10,16,17,25,17.70
2015,10,16,17,26,17.70
2015,10,16,17,27,17.60
2015,10,16,17,28,17.60
2015,10,16,17,29,17.40
2015,10,16,17,30,17.30
2015,10,16,17,31,17.20
2015,10,16,17,32,17.00
2015,10,16,17,33,16.90
2015,10,16,17,34,16.80
2015,10,16,17,35,16.70
2015,10,16,17,36,16.50